DW9750 Weather Reports


Display with metric or nautical units.
time (UTC)temp
F
wind
direction
speed
MPH
gust
MPH
rain 1hr
in
rain 24hr
in
rain mn
in
humidity
%
barometer
mb
20210922021729 80 36 0.0 4.0 0.00 0.00 0.00 44 1019.8
20210922020151 80 93 0.0 5.0 0.00 0.00 0.00 44 1019.5
20210922014612 81 123 0.0 3.0 0.00 0.00 0.00 48 1019.1
20210922013140 81 60 0.0 5.0 0.00 0.00 0.00 49 1018.8
20210922011643 81 19 0.0 3.0 0.00 0.00 0.00 52 1018.7
20210922010232 81 27 0.0 5.0 0.00 0.00 0.00 54 1018.2
20210922004654 82 303 0.0 4.0 0.00 0.00 0.00 54 1017.9
20210922003103 82 20 0.0 5.0 0.00 0.00 0.00 54 1017.5
20210922001629 82 18 0.0 1.0 0.00 0.00 0.00 54 1017.4
20210922000118 83 36 0.0 5.0 0.00 0.00 0.00 53 1017.1
20210921234556 83 7 0.0 3.0 0.00 0.00 0.00 53 1017.0
20210921233113 83 351 0.0 5.0 0.00 0.00 0.00 53 1017.1
20210921231623 84 321 0.0 3.0 0.00 0.00 0.00 53 1016.9
20210921230129 83 78 0.0 2.0 0.00 0.00 0.00 55 1016.9
20210921224607 83 311 0.0 1.0 0.00 0.00 0.00 54 1016.9
20210921223035 83 306 0.0 4.0 0.00 0.00 0.00 54 1016.5
20210921221605 83 309 0.0 2.0 0.00 0.00 0.00 54 1016.6
20210921220132 84 301 0.0 8.0 0.00 0.00 0.00 53 1016.4
20210921214600 84 359 0.0 7.0 0.00 0.00 0.00 53 1016.7
20210921213036 84 319 0.0 7.0 0.00 0.00 0.00 52 1016.5
20210921211534 84 355 0.0 6.0 0.00 0.00 0.00 51 1016.3
20210921210042 85 15 0.0 7.0 0.00 0.00 0.00 51 1016.3
20210921204631 86 277 0.0 6.0 0.00 0.00 0.00 48 1016.0
20210921203112 88 322 0.0 4.0 0.00 0.00 0.00 57 1015.7
20210921201530 87 43 0.0 7.0 0.00 0.00 0.00 58 1015.9
20210921200042 87 91 0.0 4.0 0.00 0.00 0.00 57 1016.1
20210921194542 86 328 0.0 2.0 0.00 0.00 0.00 62 1016.4
20210921193057 87 39 0.0 4.0 0.00 0.00 0.00 64 1016.7
20210921191531 87 21 0.0 4.0 0.00 0.00 0.00 66 1016.7
20210921190045 89 324 0.0 4.0 0.00 0.00 0.00 63 1016.6
20210921184529 91 306 0.0 3.0 0.00 0.00 0.00 59 1016.6
20210921183020 90 294 0.0 4.0 0.00 0.00 0.00 62 1016.6
20210921181540 89 320 0.0 5.0 0.00 0.00 0.00 62 1016.6
20210921180042 90 325 0.0 2.0 0.00 0.00 0.00 62 1016.6
20210921174518 91 99 0.0 3.0 0.00 0.00 0.00 57 1016.5
20210921173026 89 99 0.0 1.0 0.00 0.00 0.00 61 1016.5
20210921171514 89 309 0.0 3.0 0.00 0.00 0.00 61 1016.5
20210921170023 90 67 0.0 3.0 0.00 0.00 0.00 63 1016.6
20210921164515 88 143 0.0 3.0 0.00 0.00 0.00 67 1016.7
20210921163010 87 299 0.0 3.0 0.00 0.00 0.00 68 1016.7
20210921161509 86 281 0.0 4.0 0.00 0.00 0.00 71 1016.6
20210921160003 83 281 0.0 1.0 0.00 0.00 0.00 77 1016.6
20210921154713 82 269 0.0 1.0 0.00 0.00 0.00 79 1016.6
20210921153119 81 269 0.0 2.0 0.00 0.00 0.00 80 1016.5
20210921151603 81 105 0.0 1.0 0.00 0.00 0.00 79 1016.3
20210921150051 81 106 0.0 3.0 0.00 0.00 0.00 81 1015.8
20210921144648 79 123 0.0 1.0 0.00 0.00 0.00 82 1015.6
20210921143124 78 201 0.0 2.0 0.00 0.00 0.00 83 1015.3
20210921141629 78 120 0.0 3.0 0.00 0.00 0.00 83 1015.1
20210921140110 78 275 0.0 1.0 0.00 0.00 0.00 83 1015.0
20210921134548 77 279 0.0 3.0 0.00 0.00 0.00 82 1014.9
20210921133202 77 169 0.0 2.0 0.00 0.00 0.00 82 1014.8
20210921131549 77 250 0.0 1.0 0.00 0.00 0.00 81 1014.5
20210921130046 76 228 0.0 0.0 0.00 0.00 0.00 79 1014.3
20210921124557 76 206 0.0 1.0 0.00 0.00 0.00 79 1014.1
20210921123105 75 221 0.0 2.0 0.00 0.00 0.00 77 1014.0
20210921121550 75 167 0.0 1.0 0.00 0.00 0.00 72 1013.6
20210921120100 75 146 0.0 1.0 0.00 0.00 0.00 73 1013.5
20210921113024 75 146 0.0 0.0 0.00 0.00 0.00 76 1013.0
20210921111525 76 146 0.0 1.0 0.00 0.00 0.00 80 1012.7
20210921110131 76 87 0.0 2.0 0.00 0.00 0.00 78 1012.6
20210921104553 76 200 0.0 1.0 0.00 0.00 0.00 78 1012.4
20210921103037 76 209 0.0 1.0 0.00 0.00 0.00 76 1012.3
20210921101516 75 99 0.0 1.0 0.00 0.00 0.00 69 1012.2
20210921100017 75 99 0.0 0.0 0.00 0.00 0.00 66 1012.0
20210921094610 75 99 0.0 1.0 0.00 0.00 0.00 59 1012.0
20210921093012 73 99 0.0 1.0 0.00 0.00 0.00 47 1011.7
20210921091538 72 99 0.0 0.0 0.00 0.00 0.00 65 1011.7
20210921090006 72 99 0.0 0.0 0.00 0.00 0.00 75 1011.7
20210921084507 74 99 0.0 0.0 0.00 0.00 0.00 64 1011.6
20210921083238 74 99 0.0 0.0 0.00 0.00 0.00 72 1011.6
20210921081635 75 99 0.0 0.0 0.00 0.00 0.00 74 1011.6
20210921080131 75 99 0.0 0.0 0.00 0.00 0.00 77 1011.7
20210921074642 75 99 0.0 0.0 0.00 0.00 0.00 80 1011.6
20210921073154 75 99 0.0 1.0 0.00 0.00 0.00 81 1011.7
20210921071658 76 99 0.0 0.0 0.00 0.00 0.00 82 1011.7
20210921070137 76 100 0.0 0.0 0.00 0.00 0.00 82 1011.8
20210921064630 76 99 0.0 0.0 0.00 0.00 0.00 82 1011.8
20210921063156 76 99 0.0 0.0 0.00 0.00 0.00 81 1011.8
20210921061608 77 85 0.0 1.0 0.00 0.00 0.00 79 1011.7
20210921060103 78 97 0.0 2.0 0.00 0.00 0.00 78 1011.8
20210921054608 78 100 0.0 2.0 0.00 0.00 0.00 78 1011.7
20210921053115 78 109 0.0 1.0 0.00 0.00 0.00 76 1011.4
20210921051613 78 102 0.0 1.0 0.00 0.00 0.00 74 1011.3
20210921050100 78 83 0.0 2.0 0.00 0.00 0.00 73 1011.4
20210921044614 78 99 0.0 2.0 0.00 0.00 0.00 71 1011.4
20210921043056 78 103 0.0 0.0 0.00 0.00 0.00 69 1011.0
20210921041544 79 103 0.0 1.0 0.00 0.00 0.00 67 1010.8
20210921040031 79 75 0.0 1.0 0.00 0.00 0.00 65 1010.6
20210921034545 80 78 0.0 4.0 0.00 0.00 0.00 63 1010.5
20210921033033 78 88 0.0 2.0 0.00 0.00 0.00 63 1010.5
20210921031556 79 86 0.0 0.0 0.00 0.00 0.00 63 1010.3
20210921030110 80 86 0.0 0.0 0.00 0.00 0.00 60 1009.9
20210921024610 81 86 0.0 1.0 0.00 0.00 0.00 58 1009.7
20210921023037 81 86 0.0 0.0 0.00 0.00 0.00 57 1009.6